Погода в Тетюши

Погода в Тетюши : погода сейчас, прогноз погоды и архив. Всё, что Вы хотите узнать о погоде в Тетюши!

Поиск расширенной информации на нашем сайте:

Другие новости

Новости СМИ2

Главная страница сайта

Новости сайта

03.07.2017

Напоминаем, что на нашем специализированном сайте Метеоцентр.Азия вы можете получить высокодетализированные автоматические прогнозы погоды по пунктам России, СНГ и мира в авиационном формате (включающие направление и скорость ветра, видимость, явления погоды, количество и форму облачности, нижнюю и верхнюю границу облачности).


Погода в Тетюши - сегодня

Время (UTC), дата Ветер
(°,м/с) 
Видим.   Явления Облачность Т
(°С)
Тd
(°С)
f(%) Тe
(°С)
Pmin
(гПа)
dP
(гПа)
Po
(мм)
O2
(г/м3)
Тmin Tmax R s Состояние
почвы
12 11.10.18 290 (З) 9-15{15}  20000 м    6/6 600 м 
[Sc]
+9.8 -1.7 45 +7  1018.5  0.6  750  292           
18 11.10.18 290 (З) 5{10}  20000 м    6/0 средняя 
[Ac trans]
+4 -2.3 63 +2  1023  1.9  753  299           
21 11.10.18 250 (З) 20000 м    4/0 средняя 
[Ac trans]
+1.3 -2.4 76 1024.2  0.9  753  302           
00 12.10.18 290 (З) 20000 м    ясно 
+0.5 -1.6 86 -2  1025.4  1.1  754  303           
06 12.10.18 290 (З) 20000 м    3/0 средняя 
[Ac trans]
+2.8 -1.6 73 -1  1028  1.4  756  302  -1.4         
12 12.10.18 270 (З) 9-13{16}  20000 м    10/0 средняя 
[As op]
+7.1 -1.5 54 +4  1025.8  -1.5  755  297           
18 12.10.18 270 (З) 3{11}  20000 м    10/6 600 м средняя 
[Sc|As op]
+4.5 +2.2 85 +3  1024.1  -0.9  753  298           
21 12.10.18 280 (З) 20000 м  в посл. час дождь  10/6 600 м средняя 
[Sc|As op]
+4 +2.7 91 +4  1023  -1.1  753  298           
00 13.10.18 270 (З) 20000 м  {дождь}  10/6 600 м средняя 
[Sc|As op]
+3.7 +2.6 92 +3  1022.9  -0.2  752  299           
06 13.10.18 280 (З) 20000 м    6/4 600 м средняя 
[Sc|Ac trans]
+5.6 +2.5 80 +5  1023.5  0.3  753  297           
09 13.10.18 280 (З) 20000 м    8/8 600 м 
[Sc]
+7.2 -0.3 59 +6  1023.5  0.1  753  296           
12 13.10.18 290 (З) 20000 м    8/6 600 м средняя 
[Sc|Ac trans]
+7.6 +0.9 62 +6  1022.9  -0.6  753  295           
18 13.10.18 250 (З) 20000 м    6/6 600 м 
[Sc]
+2 -1.1 80 +1  1023.3  0.3  753  301           
21 13.10.18 260 (З) 20000 м    6/6 600 м 
[Sc]
+0.6 -1.9 83 1023.4  0.1  753  303           
00 14.10.18 280 (З) 20000 м    4/0 средняя 
[Ac trans]
-2.3 -3.7 90 -3  1023.8  0.2  753  306           
06 14.10.18 260 (З) 20000 м  {туман}  6/0 верхняя 
[Ci fib]
+1.1 -0.4 90 +2  1025.1  0.8  754  303  -4.5         
09 14.10.18 290 (З) 20000 м    8/0 средняя, верхняя 
[Ac trans|Ci]
+5.3 -4 51 +4  1024.4  -0.4  754  298           
12 14.10.18 270 (З) 20000 м    8/0 средняя, верхняя 
[Ac trans|Ci fib]
+6.4 -3.5 49 +6  1023.6  -0.7  753  297           
18 14.10.18 тихо ()   20000 м    10/0 средняя 
[As op]
+3.5 -4.4 56 +4  1023.8  753  300           
21 14.10.18 тихо ()   20000 м    10/6 600 м средняя 
[Sc|As op]
+2.9 -2.4 68 +3  1023.5  -0.4  753  300           
00 15.10.18 тихо ()   20000 м    10/6 600 м средняя 
[Sc|As op]
+3.4 -2.3 66 +3  1022.9  -0.5  753  300           
06 15.10.18 170 (Ю) 20000 м    10/0 средняя 
[As op]
+6.3 +1.6 72 +6  1022  -0.6  752  296           
09 15.10.18 200 (Ю) 20000 м    10/6 600 м средняя 
[Sc|As op]
+8.2 +2.8 69 +8  1021.5  -0.3  752  294           
12 15.10.18 240 (ЮЗ) 20000 м  слаб. морось  10/10 600 м 
[Frnb|Ns]
+8.4 +5.3 81 +8  1021.7  0.2  752  293           
18 15.10.18 240 (ЮЗ) 2000 м  дымка{морось}  10/6 600 м средняя 
[Sc|As op]
+10.2 +9.2 94 +10  1021.7  -0.3  752  290           
Время (UTC), дата Ветер
(°,м/с) 
Видим.   Явления Облачность Т
(°С)
Тd
(°С)
f(%) Тe
(°С)
Pmin
(гПа)
dP
(гПа)
Po
(мм)
O2
(г/м3)
Тmin Tmax R s Состояние
почвы

Для получения пояснительной информации подведите курсор к названию столбца.

ПОГОДА в Тетюши - архив

Всё, что Вы хотите узнать о погоде в Тетюши - удобно и подробно!

Выберите нужную дату (начиная с 1 января 2015* года) и нажмите кнопку "Найти".
Будут отображены архивные сводки погоды по пункту Тетюши, начиная с указанной даты.


Отображать данные в формате CSV (для использования в таблицах Excel)


Внимание! Наш архив погоды предназначен исключительно для личного некоммерческого использования в познавательных целях. Если Вам необходимы официальные справки о состоянии погоды (для производственных, юридических, коммерческих и т.п. целей), обращайтесь в органы Росгидромета.

*Примечание: данная дата относится к архиву по метеостанциям СССР (Россия, СНГ, Балтия).
Архив по метеостанциям Зарубежной Европы и Азии (кроме Китая) хранится 10 дней, по другим регионам земного шара (Китай, Африка, Америка, Австралия, Океания) - 1 день.

Тетюши - район местоположения метеостанции


Название, широта, долгота, высота метеостанции:
Тетюши 54.9°ш. 48.8°д. 156 м над ур. моря [Российская Федерация]

Дополнительная информация

В oтличие oт бoльшинства пoгoдных сайтoв мы публикуем пoдрoбную метеoинфoрмацию в детальнoм прoфессиoнальнoм фoрмате.

Характеристики температуры и влажнoсти вoздуха измеряются на высoте 2 м в тени вдали oт зданий и деревьев.
Скoрoсть ветра измеряется на высoте 10 м (на урoвне рoста челoвека скoрoсть ветра ниже в 1.5-2 раза). Если метеoстанция нахoдится в гoрoде или в лесу, тo скoрoсть ветра занижена на 2-4 м/с пo сравнению с oткрытым местoм. Скoрoсть ветра над акватoриями крупных рек и oзёр, а также на вершинах хoлмoв на 2-5 м/с выше, чем в oбычных услoвиях.
Атмoсфернoе давление в разных тoчках местнoсти мoжет значительнo oтличаться oт давления на метеoстанции, в зависимoсти oт услoвий рельефа (при пoдъёме на 10 м давление пoнижается примернo на 1 мм рт.ст.).